TimeEET,TemperatureF,Dew PointF,Humidity,Sea Level PressureIn,VisibilityMPH,Wind Direction,Wind SpeedMPH,Gust SpeedMPH,PrecipitationIn,Events,Conditions,WindDirDegrees,DateUTC
12:20 AM,44.6,41.0,87,30.33,6.2,Calm,Calm,-,N/A,,Scattered Clouds,0,2013-01-02 22:20:00
12:50 AM,41.0,37.4,87,30.36,6.2,Calm,Calm,-,N/A,,Partly Cloudy,0,2013-01-02 22:50:00
1:20 AM,41.0,37.4,87,30.36,6.2,Calm,Calm,-,N/A,,Partly Cloudy,0,2013-01-02 23:20:00
1:50 AM,41.0,39.2,93,30.36,6.2,Calm,Calm,-,N/A,,Partly Cloudy,0,2013-01-02 23:50:00
2:20 AM,39.2,37.4,93,30.36,6.2,Calm,Calm,-,N/A,,Partly Cloudy,0,2013-01-03 00:20:00
2:50 AM,39.2,35.6,87,30.39,6.2,Calm,Calm,-,N/A,,Partly Cloudy,0,2013-01-03 00:50:00
3:20 AM,37.4,35.6,93,30.39,6.2,Calm,Calm,-,N/A,,Partly Cloudy,0,2013-01-03 01:20:00
4:20 AM,37.4,35.6,93,30.39,5.0,Calm,Calm,-,N/A,,Scattered Clouds,0,2013-01-03 02:20:00
4:50 AM,37.4,35.6,93,30.39,5.0,Variable,3.5,-,N/A,,Scattered Clouds,0,2013-01-03 02:50:00
5:20 AM,37.4,35.6,93,30.39,5.0,Variable,3.5,-,N/A,,Scattered Clouds,0,2013-01-03 03:20:00
5:50 AM,37.4,35.6,93,30.39,5.0,Calm,Calm,-,N/A,,Scattered Clouds,0,2013-01-03 03:50:00
6:20 AM,37.4,35.6,93,30.39,5.0,Calm,Calm,-,N/A,,Scattered Clouds,0,2013-01-03 04:20:00
6:50 AM,39.2,37.4,93,30.42,5.0,Calm,Calm,-,N/A,,Scattered Clouds,0,2013-01-03 04:50:00
7:20 AM,39.2,37.4,93,30.42,2.5,Calm,Calm,-,N/A,Fog,Fog,0,2013-01-03 05:20:00
7:50 AM,42.8,41.0,93,30.42,5.0,NW,6.9,-,N/A,,Mostly Cloudy,320,2013-01-03 05:50:00
8:00 AM,43,40,86,30.44,1,NW,6.9,,,,Mist,320,2013-01-03 06:00:00
8:20 AM,44.6,39.2,81,30.45,5.0,NNW,11.5,-,N/A,,Mostly Cloudy,330,2013-01-03 06:20:00
8:50 AM,44.6,39.2,81,30.45,5.0,NW,8.1,-,N/A,,Mostly Cloudy,320,2013-01-03 06:50:00
9:20 AM,44.6,39.2,81,30.45,5.0,NW,10.4,-,N/A,,Mostly Cloudy,320,2013-01-03 07:20:00
9:50 AM,46.4,37.4,71,30.45,5.6,NW,9.2,-,N/A,,Mostly Cloudy,320,2013-01-03 07:50:00
10:20 AM,46.4,37.4,71,30.48,5.6,NW,5.8,-,N/A,,Mostly Cloudy,320,2013-01-03 08:20:00
10:50 AM,46.4,39.2,76,30.48,5.6,NW,5.8,-,N/A,,Mostly Cloudy,320,2013-01-03 08:50:00
11:20 AM,46.4,39.2,76,30.45,6.2,NW,5.8,-,N/A,,Mostly Cloudy,320,2013-01-03 09:20:00
11:50 AM,48.2,39.2,71,30.45,6.2,NW,6.9,-,N/A,,Mostly Cloudy,320,2013-01-03 09:50:00
12:20 PM,48.2,37.4,66,30.45,6.2,NW,6.9,-,N/A,,Mostly Cloudy,310,2013-01-03 10:20:00
12:50 PM,50.0,37.4,62,30.42,6.2,NW,6.9,-,N/A,,Scattered Clouds,310,2013-01-03 10:50:00
1:20 PM,51.8,37.4,58,30.42,6.2,NW,10.4,-,N/A,,Mostly Cloudy,310,2013-01-03 11:20:00
1:50 PM,51.8,37.4,58,30.42,6.2,WNW,12.7,-,N/A,,Scattered Clouds,300,2013-01-03 11:50:00
2:00 PM,53,38,45,30.43,6,WNW,12.7,,,,Scattered Clouds,300,2013-01-03 12:00:00
2:50 PM,53.6,35.6,51,30.39,6.2,NW,11.5,-,N/A,,Scattered Clouds,310,2013-01-03 12:50:00
3:20 PM,55.4,37.4,51,30.39,6.2,WNW,9.2,-,N/A,,Scattered Clouds,290,2013-01-03 13:20:00
3:50 PM,55.4,33.8,44,30.39,6.2,NNW,16.1,-,N/A,,Partly Cloudy,330,2013-01-03 13:50:00
4:20 PM,55.4,35.6,47,30.39,6.2,NW,16.1,-,N/A,,Partly Cloudy,320,2013-01-03 14:20:00
4:50 PM,55.4,35.6,47,30.39,6.2,NNW,13.8,-,N/A,,Partly Cloudy,330,2013-01-03 14:50:00
5:20 PM,53.6,33.8,47,30.39,6.2,North,9.2,-,N/A,,Partly Cloudy,360,2013-01-03 15:20:00
5:50 PM,53.6,33.8,47,30.39,6.2,NNW,8.1,-,N/A,,Partly Cloudy,330,2013-01-03 15:50:00
6:20 PM,53.6,33.8,47,30.39,6.2,NNW,8.1,-,N/A,,Partly Cloudy,330,2013-01-03 16:20:00
6:50 PM,50.0,33.8,54,30.39,6.2,North,5.8,-,N/A,,Partly Cloudy,350,2013-01-03 16:50:00
7:20 PM,50.0,33.8,54,30.39,6.2,North,5.8,-,N/A,,Partly Cloudy,10,2013-01-03 17:20:00
7:50 PM,48.2,33.8,58,30.39,6.2,North,4.6,-,N/A,,Partly Cloudy,10,2013-01-03 17:50:00
8:00 PM,49,33,43,30.41,6,North,4.6,,,,Scattered Clouds,10,2013-01-03 18:00:00
8:20 PM,51.8,33.8,50,30.39,6.2,NNW,10.4,-,N/A,,Partly Cloudy,340,2013-01-03 18:20:00
8:50 PM,48.2,32.0,54,30.39,6.2,NE,4.6,-,N/A,,Partly Cloudy,40,2013-01-03 18:50:00
9:20 PM,42.8,32.0,66,30.39,6.2,ESE,5.8,-,N/A,,Partly Cloudy,120,2013-01-03 19:20:00
9:50 PM,39.2,32.0,75,30.39,6.2,ESE,3.5,-,N/A,,Partly Cloudy,110,2013-01-03 19:50:00
10:20 PM,37.4,32.0,81,30.39,6.2,Variable,3.5,-,N/A,,Partly Cloudy,0,2013-01-03 20:20:00
10:50 PM,39.2,32.0,75,30.39,6.2,Calm,Calm,-,N/A,,Partly Cloudy,0,2013-01-03 20:50:00
11:20 PM,35.6,30.2,81,30.39,6.2,ESE,4.6,-,N/A,,Partly Cloudy,110,2013-01-03 21:20:00
11:50 PM,35.6,30.2,81,30.39,6.2,ESE,4.6,-,N/A,,Partly Cloudy,120,2013-01-03 21:50:00